EJM1031 KTNP-KTEX

Flight info

Callsign EJM1031
Flight time 0h 56m
Altitude 39000
Route TNP JOTNU COOOP AREAF Q90 NAVJO DVC ETL
Aircraft C750/M-SBDE3FGHRWXY/S

Departure

Time 2026-05-05 22:45
Airport Twentynine Palms Airport (KTNP)

Arrival

Time 2026-05-05 23:41
Airport Telluride Regional Airport (KTEX)
Time Latitude Longitude Altitude Speed Heading
2026-05-05 22:39 34.13626 -115.94196 1942 ft 0 kts 180°
2026-05-05 22:41 34.13624 -115.94196 1942 ft 3 kts 180°
2026-05-05 22:41 34.13612 -115.94201 1938 ft 1 kts 188°
2026-05-05 22:42 34.13599 -115.94171 1936 ft 7 kts 115°
2026-05-05 22:42 34.13543 -115.94156 1942 ft 9 kts 180°
2026-05-05 22:42 34.13523 -115.94103 1942 ft 11 kts 89°
2026-05-05 22:42 34.13524 -115.93980 1942 ft 17 kts 90°
2026-05-05 22:43 34.13525 -115.93835 1942 ft 17 kts 90°
2026-05-05 22:43 34.13526 -115.93680 1942 ft 20 kts 91°
2026-05-05 22:43 34.13525 -115.93537 1942 ft 9 kts 107°
2026-05-05 22:43 34.13477 -115.93523 1940 ft 7 kts 180°
2026-05-05 22:44 34.13444 -115.93534 1942 ft 2 kts 260°
2026-05-05 22:44 34.13443 -115.93547 1937 ft 3 kts 263°
2026-05-05 22:44 34.13444 -115.93872 1946 ft 94 kts 269°
2026-05-05 22:44 34.13433 -115.94920 2282 ft 127 kts 270°
2026-05-05 22:45 34.13438 -115.95954 3170 ft 123 kts 270°
2026-05-05 22:45 34.13497 -115.97041 3750 ft 140 kts 274°
2026-05-05 22:45 34.13822 -115.98238 4264 ft 160 kts 291°
2026-05-05 22:45 34.13788 -115.99496 5008 ft 155 kts 237°
2026-05-05 22:46 34.12874 -116.00071 5927 ft 145 kts 196°
2026-05-05 22:46 34.11882 -116.00247 6657 ft 154 kts 180°
2026-05-05 22:46 34.10767 -115.99789 7009 ft 188 kts 150°
2026-05-05 22:46 34.09843 -115.98509 7448 ft 222 kts 117°
2026-05-05 22:47 34.09611 -115.97256 7741 ft 243 kts 94°
2026-05-05 22:47 34.09813 -115.94382 8602 ft 271 kts 85°
2026-05-05 22:47 34.10041 -115.92036 9243 ft 291 kts 86°
2026-05-05 22:47 34.10237 -115.89565 10092 ft 298 kts 87°
2026-05-05 22:48 34.10358 -115.87894 10516 ft 308 kts 87°
2026-05-05 22:48 34.10560 -115.85215 10781 ft 334 kts 86°
2026-05-05 22:48 34.10880 -115.81324 10975 ft 367 kts 86°
2026-05-05 22:48 34.11305 -115.78267 11616 ft 373 kts 74°
2026-05-05 22:49 34.12086 -115.76354 12033 ft 379 kts 58°
2026-05-05 22:49 34.13818 -115.74001 12776 ft 381 kts 44°
2026-05-05 22:49 34.15790 -115.71815 13450 ft 387 kts 41°
2026-05-05 22:49 34.17825 -115.69620 14044 ft 394 kts 41°
2026-05-05 22:50 34.19839 -115.67351 14689 ft 398 kts 43°
2026-05-05 22:50 34.21858 -115.65031 15313 ft 403 kts 43°
2026-05-05 22:50 34.23928 -115.62697 15875 ft 409 kts 41°
2026-05-05 22:50 34.26040 -115.60347 16505 ft 414 kts 41°
2026-05-05 22:51 34.28165 -115.57958 17146 ft 420 kts 41°
2026-05-05 22:51 34.30306 -115.55527 17816 ft 425 kts 41°
2026-05-05 22:51 34.32478 -115.53067 18426 ft 431 kts 41°
2026-05-05 22:51 34.34609 -115.50479 18956 ft 437 kts 44°
2026-05-05 22:52 34.36760 -115.47865 19594 ft 441 kts 43°
2026-05-05 22:52 34.38955 -115.45218 20188 ft 447 kts 43°
2026-05-05 22:52 34.41164 -115.42531 20799 ft 453 kts 44°
2026-05-05 22:52 34.43398 -115.39795 21387 ft 460 kts 44°
2026-05-05 22:53 34.45643 -115.37052 22009 ft 466 kts 43°
2026-05-05 22:53 34.47940 -115.34255 22619 ft 472 kts 43°
2026-05-05 22:53 34.50273 -115.31408 23213 ft 478 kts 43°
2026-05-05 22:53 34.52629 -115.28523 23701 ft 485 kts 43°
2026-05-05 22:54 34.55025 -115.25588 24192 ft 491 kts 43°
2026-05-05 22:54 34.57445 -115.22625 24666 ft 498 kts 43°
2026-05-05 22:54 34.59897 -115.19621 25121 ft 504 kts 43°
2026-05-05 22:54 34.62382 -115.16571 25541 ft 511 kts 43°
2026-05-05 22:55 34.64896 -115.13480 25998 ft 518 kts 44°
2026-05-05 22:55 34.67448 -115.10342 26464 ft 524 kts 44°
2026-05-05 22:55 34.70024 -115.07174 26919 ft 530 kts 44°
2026-05-05 22:55 34.72639 -115.03954 27337 ft 537 kts 44°
2026-05-05 22:56 34.75275 -115.00701 27806 ft 543 kts 44°
2026-05-05 22:56 34.77770 -114.97214 28192 ft 551 kts 53°
2026-05-05 22:56 34.79855 -114.93298 28708 ft 554 kts 60°
2026-05-05 22:56 34.81806 -114.89268 29106 ft 561 kts 61°
2026-05-05 22:57 34.83799 -114.85160 29599 ft 567 kts 61°
2026-05-05 22:57 34.85825 -114.81013 30030 ft 572 kts 61°
2026-05-05 22:57 34.87867 -114.76827 30398 ft 577 kts 61°
2026-05-05 22:57 34.89915 -114.72596 30798 ft 581 kts 61°
2026-05-05 22:58 34.91961 -114.68362 31383 ft 580 kts 61°
2026-05-05 22:58 34.94015 -114.64125 31978 ft 579 kts 61°
2026-05-05 22:58 34.96068 -114.59890 32524 ft 580 kts 61°
2026-05-05 22:58 34.98117 -114.55643 33030 ft 581 kts 62°
2026-05-05 22:59 35.00165 -114.51390 33625 ft 582 kts 62°
2026-05-05 22:59 35.02212 -114.47141 34159 ft 582 kts 61°
2026-05-05 22:59 35.04266 -114.42877 34671 ft 582 kts 61°
2026-05-05 22:59 35.06316 -114.38611 35153 ft 583 kts 61°
2026-05-05 23:00 35.10407 -114.30079 36332 ft 581 kts 60°
2026-05-05 23:00 35.12422 -114.25872 36840 ft 581 kts 61°
2026-05-05 23:00 35.14465 -114.21600 37368 ft 583 kts 61°
2026-05-05 23:01 35.16507 -114.17322 37979 ft 582 kts 60°
2026-05-05 23:01 35.18548 -114.13043 38605 ft 581 kts 60°
2026-05-05 23:01 35.20582 -114.08776 38984 ft 584 kts 60°
2026-05-05 23:01 35.22647 -114.04435 38995 ft 596 kts 60°
2026-05-05 23:02 35.24750 -114.00009 38994 ft 608 kts 60°
2026-05-05 23:02 35.26894 -113.95492 39010 ft 618 kts 60°
2026-05-05 23:02 35.29032 -113.90984 38998 ft 589 kts 60°
2026-05-05 23:02 35.31108 -113.86600 38997 ft 601 kts 60°
2026-05-05 23:03 35.33220 -113.82130 38980 ft 613 kts 60°
2026-05-05 23:03 35.35371 -113.77571 38971 ft 622 kts 60°
2026-05-05 23:03 35.39757 -113.68267 38937 ft 635 kts 60°
2026-05-05 23:04 35.44187 -113.58839 38904 ft 638 kts 60°
2026-05-05 23:04 35.48607 -113.49406 38894 ft 637 kts 60°
2026-05-05 23:05 35.53027 -113.39947 38899 ft 638 kts 60°
2026-05-05 23:05 35.57431 -113.30499 38903 ft 636 kts 60°
2026-05-05 23:06 35.61657 -113.20932 38882 ft 637 kts 66°
2026-05-05 23:06 35.64908 -113.10905 38910 ft 633 kts 71°
2026-05-05 23:07 35.68271 -113.00867 38924 ft 636 kts 68°
2026-05-05 23:07 35.71610 -112.90792 38925 ft 633 kts 70°
2026-05-05 23:08 35.74901 -112.80714 38932 ft 634 kts 68°
2026-05-05 23:08 35.78243 -112.70667 38930 ft 632 kts 69°
2026-05-05 23:09 35.81501 -112.60580 38934 ft 634 kts 69°
2026-05-05 23:09 35.84805 -112.50584 38948 ft 632 kts 69°
2026-05-05 23:10 35.88053 -112.40483 38978 ft 633 kts 69°
2026-05-05 23:10 35.91347 -112.30410 39017 ft 630 kts 69°
2026-05-05 23:11 35.94561 -112.20391 39032 ft 631 kts 69°
2026-05-05 23:11 35.97816 -112.10328 39037 ft 629 kts 69°
2026-05-05 23:12 36.01010 -112.00339 39013 ft 626 kts 69°
2026-05-05 23:12 36.04213 -111.90339 38989 ft 626 kts 69°
2026-05-05 23:13 36.07418 -111.80354 38914 ft 623 kts 67°
2026-05-05 23:13 36.10926 -111.70512 38887 ft 625 kts 66°
2026-05-05 23:14 36.14408 -111.60650 38875 ft 626 kts 66°
2026-05-05 23:14 36.17867 -111.50839 38865 ft 624 kts 66°
2026-05-05 23:15 36.21343 -111.40967 38867 ft 625 kts 66°
2026-05-05 23:15 36.24799 -111.31082 38867 ft 623 kts 66°
2026-05-05 23:16 36.28255 -111.21210 38871 ft 624 kts 66°
2026-05-05 23:16 36.31668 -111.11386 38860 ft 622 kts 66°
2026-05-05 23:17 36.35098 -111.01517 38867 ft 623 kts 66°
2026-05-05 23:17 36.38510 -110.91639 38869 ft 622 kts 66°
2026-05-05 23:18 36.41918 -110.81765 38857 ft 622 kts 66°
2026-05-05 23:18 36.45305 -110.71902 38862 ft 620 kts 66°
2026-05-05 23:19 36.48687 -110.62033 38863 ft 620 kts 66°
2026-05-05 23:19 36.52037 -110.52217 38865 ft 618 kts 66°
2026-05-05 23:20 36.55567 -110.42453 38770 ft 616 kts 59°
2026-05-05 23:20 36.60526 -110.33948 38770 ft 606 kts 42°
2026-05-05 23:21 36.66732 -110.26955 38780 ft 599 kts 33°
2026-05-05 23:21 36.73133 -110.20302 38755 ft 602 kts 37°
2026-05-05 23:22 36.79075 -110.12884 38730 ft 607 kts 44°
2026-05-05 23:22 36.84601 -110.04879 38728 ft 609 kts 47°
2026-05-05 23:23 36.89896 -109.96602 38719 ft 609 kts 46°
2026-05-05 23:23 36.95338 -109.88585 38710 ft 608 kts 46°
2026-05-05 23:24 37.00653 -109.80344 38698 ft 608 kts 46°
2026-05-05 23:24 37.06070 -109.72218 38638 ft 601 kts 46°
2026-05-05 23:25 37.08686 -109.68217 37739 ft 589 kts 47°
2026-05-05 23:25 37.11210 -109.64289 37003 ft 566 kts 47°
2026-05-05 23:25 37.13605 -109.60609 36296 ft 529 kts 46°
2026-05-05 23:25 37.15949 -109.57081 35603 ft 527 kts 46°
2026-05-05 23:26 37.18313 -109.53507 34908 ft 538 kts 46°
2026-05-05 23:26 37.20692 -109.49830 34197 ft 546 kts 47°
2026-05-05 23:26 37.23051 -109.46163 33463 ft 548 kts 47°
2026-05-05 23:26 37.25460 -109.42471 32732 ft 544 kts 47°
2026-05-05 23:27 37.27860 -109.38810 32027 ft 542 kts 47°
2026-05-05 23:27 37.30240 -109.35145 31323 ft 541 kts 48°
2026-05-05 23:27 37.32613 -109.31464 30618 ft 540 kts 49°
2026-05-05 23:27 37.34978 -109.27807 29901 ft 537 kts 49°
2026-05-05 23:28 37.37315 -109.24208 29145 ft 525 kts 49°
2026-05-05 23:28 37.39600 -109.20679 28454 ft 517 kts 49°
2026-05-05 23:28 37.41846 -109.17194 27779 ft 508 kts 49°
2026-05-05 23:28 37.44049 -109.13773 27098 ft 499 kts 49°
2026-05-05 23:29 37.46220 -109.10407 26445 ft 491 kts 49°
2026-05-05 23:29 37.48356 -109.07094 25799 ft 483 kts 49°
2026-05-05 23:29 37.50447 -109.03840 25155 ft 475 kts 49°
2026-05-05 23:29 37.52509 -109.00628 24541 ft 466 kts 49°
2026-05-05 23:30 37.54530 -108.97481 23925 ft 459 kts 49°
2026-05-05 23:30 37.55853 -108.95418 23532 ft 453 kts 49°
2026-05-05 23:30 37.58453 -108.91361 22692 ft 444 kts 49°
2026-05-05 23:30 37.60387 -108.88340 22119 ft 441 kts 49°
2026-05-05 23:31 37.62306 -108.85341 21536 ft 437 kts 49°
2026-05-05 23:31 37.64210 -108.82360 20964 ft 434 kts 49°
2026-05-05 23:31 37.66092 -108.79410 20387 ft 430 kts 49°
2026-05-05 23:31 37.67960 -108.76481 19819 ft 426 kts 49°
2026-05-05 23:32 37.69805 -108.73586 19264 ft 422 kts 49°
2026-05-05 23:32 37.71639 -108.70705 18714 ft 419 kts 49°
2026-05-05 23:32 37.73451 -108.67856 18164 ft 414 kts 49°
2026-05-05 23:32 37.75250 -108.65024 17583 ft 409 kts 50°
2026-05-05 23:33 37.77022 -108.62233 17045 ft 407 kts 50°
2026-05-05 23:33 37.78792 -108.59446 16504 ft 404 kts 50°
2026-05-05 23:33 37.80523 -108.56716 15988 ft 401 kts 50°
2026-05-05 23:33 37.82261 -108.53969 15457 ft 398 kts 50°
2026-05-05 23:34 37.83990 -108.51235 14929 ft 395 kts 50°
2026-05-05 23:34 37.85706 -108.48524 14413 ft 392 kts 50°
2026-05-05 23:34 37.87406 -108.45836 13898 ft 390 kts 51°
2026-05-05 23:34 37.89092 -108.43162 13428 ft 387 kts 50°
2026-05-05 23:35 37.90677 -108.40636 12859 ft 343 kts 51°
2026-05-05 23:35 37.91830 -108.38176 12608 ft 308 kts 65°
2026-05-05 23:35 37.92632 -108.35844 12720 ft 279 kts 66°
2026-05-05 23:35 37.93416 -108.33592 12726 ft 289 kts 65°
2026-05-05 23:36 37.94253 -108.31244 12749 ft 290 kts 65°
2026-05-05 23:36 37.95067 -108.28944 12793 ft 283 kts 65°
2026-05-05 23:36 37.95868 -108.26661 12805 ft 282 kts 66°
2026-05-05 23:36 37.96664 -108.24388 12793 ft 281 kts 65°
2026-05-05 23:37 37.97452 -108.22146 12823 ft 277 kts 65°
2026-05-05 23:37 37.97974 -108.20657 12768 ft 281 kts 65°
2026-05-05 23:37 37.98773 -108.18379 12620 ft 281 kts 65°
2026-05-05 23:37 37.99573 -108.16093 12366 ft 283 kts 66°
2026-05-05 23:38 38.00046 -108.13703 12024 ft 279 kts 92°
2026-05-05 23:38 37.99698 -108.11330 11819 ft 269 kts 108°
2026-05-05 23:38 37.99210 -108.09090 11695 ft 259 kts 108°
2026-05-05 23:38 37.98758 -108.06974 11475 ft 238 kts 108°
2026-05-05 23:39 37.98353 -108.05008 11270 ft 223 kts 108°
2026-05-05 23:39 37.97975 -108.03190 11001 ft 207 kts 109°
2026-05-05 23:39 37.97626 -108.01524 11073 ft 186 kts 109°
2026-05-05 23:39 37.97292 -107.99957 10574 ft 183 kts 109°
2026-05-05 23:40 37.96984 -107.98480 10321 ft 161 kts 107°
2026-05-05 23:40 37.96702 -107.97140 10202 ft 159 kts 108°
2026-05-05 23:40 37.96399 -107.95731 9877 ft 169 kts 106°
2026-05-05 23:40 37.96098 -107.94278 9593 ft 170 kts 104°
2026-05-05 23:41 37.95795 -107.92841 9231 ft 167 kts 103°
2026-05-05 23:41 37.95503 -107.91439 9048 ft 155 kts 104°
2026-05-05 23:41 37.95264 -107.90316 9038 ft 83 kts 105°
2026-05-05 23:41 37.95196 -107.89993 9056 ft 22 kts 104°
2026-05-05 23:42 37.95160 -107.89825 9066 ft 18 kts 105°
2026-05-05 23:42 37.95148 -107.89696 9071 ft 12 kts 55°
2026-05-05 23:42 37.95220 -107.89670 9073 ft 13 kts 344°
2026-05-05 23:42 37.95261 -107.89771 9068 ft 14 kts 286°
2026-05-05 23:43 37.95291 -107.89903 9062 ft 17 kts 284°
2026-05-05 23:43 37.95322 -107.90051 9057 ft 17 kts 285°
2026-05-05 23:43 37.95349 -107.90180 9056 ft 14 kts 285°
2026-05-05 23:43 37.95388 -107.90257 9054 ft 8 kts
2026-05-05 23:44 37.95418 -107.90226 9056 ft 3 kts 104°
2026-05-05 23:44 37.95417 -107.90220 9056 ft 0 kts 105°